TimeGMT,TemperatureF,Dew PointF,Humidity,Sea Level PressureIn,VisibilityMPH,Wind Direction,Wind SpeedMPH,Gust SpeedMPH,PrecipitationIn,Events,Conditions,WindDirDegrees,DateUTC
7:20 AM,42.8,42.8,100,30.24,0.2,SE,1.2,-,N/A,Fog,Fog,130,2012-11-15 07:20:00
7:50 AM,42.8,42.8,100,30.24,1.2,SE,3.5,-,N/A,,Overcast,130,2012-11-15 07:50:00
8:20 AM,42.8,42.8,100,30.24,1.0,East,2.3,-,N/A,,Overcast,90,2012-11-15 08:20:00
8:50 AM,42.8,42.8,100,30.24,1.2,ESE,3.5,-,N/A,,Mostly Cloudy,110,2012-11-15 08:50:00
9:20 AM,42.8,42.8,100,30.21,1.9,ESE,5.8,-,N/A,,Mostly Cloudy,120,2012-11-15 09:20:00
9:50 AM,42.8,41.0,93,30.24,1.9,SSE,3.5,-,N/A,,Mostly Cloudy,150,2012-11-15 09:50:00
10:20 AM,44.6,44.6,100,30.21,1.9,SW,3.5,-,N/A,,Mostly Cloudy,220,2012-11-15 10:20:00
10:50 AM,44.6,42.8,93,30.21,1.9,SSE,4.6,-,N/A,,Mostly Cloudy,150,2012-11-15 10:50:00
11:20 AM,46.4,42.8,87,30.21,1.9,SE,5.8,-,N/A,,Mostly Cloudy,140,2012-11-15 11:20:00
11:50 AM,46.4,42.8,87,30.21,2.2,SE,4.6,-,N/A,,Mostly Cloudy,130,2012-11-15 11:50:00
12:20 PM,46.4,42.8,87,30.18,3.1,NE,3.5,-,N/A,,Mostly Cloudy,50,2012-11-15 12:20:00
12:50 PM,46.4,41.0,81,30.18,3.1,ENE,5.8,-,N/A,,Scattered Clouds,60,2012-11-15 12:50:00
1:20 PM,48.2,41.0,76,30.18,3.1,ESE,3.5,-,N/A,,Scattered Clouds,110,2012-11-15 13:20:00
1:50 PM,46.4,41.0,81,30.15,3.1,SSE,3.5,-,N/A,,Scattered Clouds,150,2012-11-15 13:50:00
2:20 PM,48.2,46.4,93,30.15,3.1,NE,4.6,-,N/A,,Scattered Clouds,50,2012-11-15 14:20:00
2:50 PM,46.4,42.8,87,30.15,3.1,East,4.6,-,N/A,,Partly Cloudy,80,2012-11-15 14:50:00
3:20 PM,44.6,42.8,93,30.12,2.2,ENE,3.5,-,N/A,,Mist,70,2012-11-15 15:20:00
3:50 PM,42.8,41.0,93,30.15,1.6,NE,4.6,-,N/A,,Mist,50,2012-11-15 15:50:00
4:20 PM,37.4,35.6,93,30.15,0.5,ENE,4.6,-,N/A,Fog,Fog,70,2012-11-15 16:20:00
4:50 PM,53.6,53.6,100,30.15,0.1,ESE,3.5,-,N/A,Fog,Fog,120,2012-11-15 16:50:00
5:20 PM,42.8,42.8,100,30.12,0.1,ESE,4.6,-,N/A,Fog,Fog,110,2012-11-15 17:20:00
5:50 PM,39.2,39.2,100,30.15,0.2,Calm,Calm,-,N/A,Fog,Fog,0,2012-11-15 17:50:00
6:20 PM,39.2,39.2,100,30.12,0.2,SSE,3.5,-,N/A,Fog,Fog,150,2012-11-15 18:20:00
6:50 PM,41.0,41.0,100,30.12,1.1,SSE,5.8,-,N/A,,Mostly Cloudy,150,2012-11-15 18:50:00
7:20 PM,42.8,42.8,100,30.12,1.2,SSE,5.8,-,N/A,,Mostly Cloudy,160,2012-11-15 19:20:00
7:50 PM,42.8,41.0,93,30.12,1.6,SSE,6.9,-,N/A,,Mostly Cloudy,160,2012-11-15 19:50:00
8:20 PM,39.2,37.4,93,30.12,1.6,SSE,5.8,-,N/A,,Mostly Cloudy,160,2012-11-15 20:20:00
8:50 PM,41.0,39.2,93,30.12,1.6,South,6.9,-,N/A,,Mostly Cloudy,180,2012-11-15 20:50:00
9:20 PM,41.0,39.2,93,30.12,3.7,South,6.9,-,N/A,,Mostly Cloudy,180,2012-11-15 21:20:00